sat.trackr.live / text

‹ back to catalog

STARLINK-37116

NORAD 68213 · 2026-053G

PAYLOAD ACTIVE UNKNOWN

§ Identity

Operator
Country
US
Launch date
2026-03-17
Launch site
AFWTR
Launch vehicle
Mass (kg)
RCS (m²)

Purposes: comms

External: N2YO · Heavens-Above · Gunter

§ Orbital elements

Epoch: 2026-05-25T03:30:32.112000Z

Period
93.91 min
Inclination
97.2874°
Eccentricity
0.0001759
Mean motion
15.33453299 rev/d
Perigee alt
464.3 km
Apogee alt
466.7 km
Semi-major
6,843.7 km
B*
4.6062e-4
RAAN
20.5725°
Arg perigee
92.6126°
Mean anomaly
267.5318°
Rev number
1,193

§ Raw data

STARLINK-371161 68213U 26053G   26145.14620500  .00014829  00000+0  46062-3 0  99962 68213  97.2874  20.5725 0001759  92.6126 267.5318 15.33453299 11938

JSON: /api/v1/satellites/68213 · /tle

For live sub-satellite position, see the globe view (requires WebGL).

§ Visibility from observer

Set your observer location to see the next 7 days of passes ≥ 10°. The values pass through the URL so the page stays shareable.

No JS? Fill the form by hand. The geolocation button needs JavaScript.